• In Hungary
  • List of Countries
  • For 7 days
  • Water Temperature
  • Satellite Maps
  • Weather Map
  • News
  • Weather Widgets
  • user-avatar
    Login

    Hourly Weather Belpasso

    Today, 21 September, Friday

    Time Temperature Precipitation Wind Pressure Humidity
    00:00 +21°C° 0.1 mm 1 mps 710 mmHg 77%
    01:00 +21°C° 0.1 mm 1 mps 710 mmHg 78%
    02:00 +21°C° 0 mm 1 mps 710 mmHg 78%
    03:00 +21°C° 0 mm 1 mps 710 mmHg 78%
    04:00 +20°C° 0 mm 1 mps 710 mmHg 79%
    05:00 +21°C° 0 mm 1 mps 710 mmHg 77%
    06:00 +21°C° 0 mm 1 mps 710 mmHg 75%
    07:00 +21°C° 0 mm 2 mps 710 mmHg 73%
    08:00 +23°C° 0.2 mm 2 mps 711 mmHg 68%
    09:00 +24°C° 0.2 mm 2 mps 711 mmHg 63%
    10:00 +26°C° 0.2 mm 2 mps 711 mmHg 57%
    11:00 +26°C° 0.4 mm 2 mps 711 mmHg 56%
    12:00 +27°C° 0.4 mm 2 mps 711 mmHg 54%
    13:00 +27°C° 0.4 mm 3 mps 711 mmHg 53%
    14:00 +27°C° 0.5 mm 3 mps 711 mmHg 55%
    15:00 +26°C° 0.5 mm 2 mps 711 mmHg 56%
    16:00 +26°C° 0.5 mm 2 mps 710 mmHg 58%
    17:00 +25°C° 0.4 mm 2 mps 710 mmHg 62%
    18:00 +24°C° 0.4 mm 2 mps 710 mmHg 67%
    19:00 +23°C° 0.4 mm 1 mps 711 mmHg 71%
    20:00 +23°C° 0.2 mm 1 mps 711 mmHg 73%
    21:00 +22°C° 0.2 mm 1 mps 711 mmHg 74%
    22:00 +22°C° 0.2 mm 1 mps 711 mmHg 76%
    23:00 +22°C° 0.1 mm 1 mps 711 mmHg 77%

    Tomorrow, 22 September, Saturday

    Time Temperature Precipitation Wind Pressure Humidity
    00:00 +21°C° 0.1 mm 1 mps 711 mmHg 78%
    01:00 +21°C° 0.1 mm 1 mps 711 mmHg 79%
    02:00 +21°C° 0 mm 1 mps 711 mmHg 79%
    03:00 +21°C° 0 mm 1 mps 711 mmHg 79%
    04:00 +21°C° 0 mm 1 mps 711 mmHg 80%
    05:00 +21°C° 0 mm 1 mps 711 mmHg 78%
    06:00 +21°C° 0 mm 1 mps 711 mmHg 76%
    07:00 +22°C° 0 mm 1 mps 711 mmHg 75%
    08:00 +23°C° 0 mm 1 mps 712 mmHg 69%
    09:00 +25°C° 0 mm 1 mps 712 mmHg 62%
    10:00 +27°C° 0 mm 1 mps 713 mmHg 56%
    11:00 +27°C° 0.1 mm 2 mps 713 mmHg 55%
    12:00 +27°C° 0.1 mm 2 mps 713 mmHg 53%
    13:00 +28°C° 0.1 mm 2 mps 713 mmHg 52%
    14:00 +28°C° 0.1 mm 2 mps 712 mmHg 53%
    15:00 +27°C° 0.1 mm 2 mps 712 mmHg 55%
    16:00 +27°C° 0.1 mm 2 mps 712 mmHg 57%
    17:00 +26°C° 0 mm 2 mps 712 mmHg 62%
    18:00 +25°C° 0 mm 2 mps 712 mmHg 67%
    19:00 +24°C° 0 mm 1 mps 712 mmHg 72%
    20:00 +23°C° 0 mm 1 mps 713 mmHg 74%
    21:00 +23°C° 0 mm 1 mps 713 mmHg 76%
    22:00 +23°C° 0 mm 1 mps 713 mmHg 78%
    23:00 +23°C° 0 mm 1 mps 713 mmHg 79%

    Day after tomorrow, 23 September, Sunday

    Time Temperature Precipitation Wind Pressure Humidity
    00:00 +20°C° 0 mm 0 mps 713 mmHg 80%
    01:00 +20°C° 0 mm 0 mps 713 mmHg 81%
    02:00 +20°C° 0 mm 0 mps 713 mmHg 81%
    03:00 +20°C° 0 mm 0 mps 713 mmHg 82%
    04:00 +21°C° 0 mm 1 mps 713 mmHg 82%
    05:00 +22°C° 0 mm 1 mps 713 mmHg 80%
    06:00 +22°C° 0 mm 1 mps 713 mmHg 78%
    07:00 +23°C° 0 mm 1 mps 713 mmHg 75%
    08:00 +24°C° 0 mm 1 mps 714 mmHg 69%
    09:00 +26°C° 0 mm 1 mps 715 mmHg 62%
    10:00 +27°C° 0 mm 2 mps 715 mmHg 55%
    11:00 +27°C° 0 mm 2 mps 715 mmHg 53%
    12:00 +28°C° 0 mm 2 mps 715 mmHg 52%
    13:00 +28°C° 0 mm 2 mps 715 mmHg 50%
    14:00 +28°C° 0 mm 2 mps 715 mmHg 53%
    15:00 +27°C° 0 mm 2 mps 714 mmHg 55%
    16:00 +27°C° 0 mm 2 mps 714 mmHg 57%
    17:00 +26°C° 0 mm 2 mps 714 mmHg 63%
    18:00 +25°C° 0 mm 1 mps 714 mmHg 68%
    19:00 +24°C° 0 mm 1 mps 714 mmHg 73%
    20:00 +24°C° 0 mm 1 mps 714 mmHg 75%
    21:00 +23°C° 0 mm 1 mps 715 mmHg 77%
    22:00 +23°C° 0 mm 1 mps 715 mmHg 78%
    23:00 +23°C° 0 mm 1 mps 714 mmHg 79%

    24 September, Monday

    Time Temperature Precipitation Wind Pressure Humidity
    00:00 +22°C° 0 mm 1 mps 714 mmHg 81%
    01:00 +22°C° 0 mm 1 mps 714 mmHg 82%
    02:00 +22°C° 0 mm 1 mps 714 mmHg 83%
    03:00 +22°C° 0 mm 1 mps 713 mmHg 84%
    04:00 +21°C° 0 mm 1 mps 713 mmHg 86%
    05:00 +22°C° 0 mm 1 mps 713 mmHg 84%
    06:00 +22°C° 0 mm 1 mps 713 mmHg 82%
    07:00 +23°C° 0 mm 1 mps 713 mmHg 81%
    08:00 +24°C° 0 mm 1 mps 713 mmHg 73%
    09:00 +26°C° 0 mm 1 mps 713 mmHg 66%
    10:00 +27°C° 0 mm 2 mps 713 mmHg 59%
    11:00 +28°C° 0 mm 2 mps 713 mmHg 56%
    12:00 +28°C° 0 mm 2 mps 713 mmHg 54%
    13:00 +29°C° 0 mm 3 mps 712 mmHg 52%
    14:00 +28°C° 0 mm 3 mps 712 mmHg 54%
    15:00 +28°C° 0 mm 3 mps 712 mmHg 56%
    16:00 +27°C° 0 mm 3 mps 711 mmHg 57%
    17:00 +26°C° 0 mm 3 mps 711 mmHg 62%
    18:00 +25°C° 0 mm 2 mps 711 mmHg 67%
    19:00 +24°C° 0 mm 2 mps 711 mmHg 72%
    20:00 +24°C° 0 mm 2 mps 711 mmHg 74%
    21:00 +23°C° 0 mm 1 mps 711 mmHg 76%
    22:00 +23°C° 0 mm 1 mps 711 mmHg 78%
    23:00 +22°C° 0 mm 1 mps 711 mmHg 80%

    25 September, Tuesday

    Time Temperature Precipitation Wind Pressure Humidity
    00:00 +22°C° 0 mm 1 mps 711 mmHg 81%
    01:00 +22°C° 0 mm 1 mps 710 mmHg 83%
    02:00 +21°C° 0 mm 2 mps 710 mmHg 83%
    03:00 +21°C° 0 mm 2 mps 710 mmHg 84%
    04:00 +20°C° 0 mm 2 mps 710 mmHg 84%
    05:00 +21°C° 0 mm 2 mps 710 mmHg 81%
    06:00 +21°C° 0 mm 2 mps 711 mmHg 79%
    07:00 +21°C° 0 mm 2 mps 711 mmHg 76%
    08:00 +24°C° 0 mm 2 mps 711 mmHg 69%
    09:00 +25°C° 0 mm 3 mps 712 mmHg 62%
    10:00 +27°C° 0 mm 3 mps 712 mmHg 55%
    11:00 +26°C° 0 mm 4 mps 712 mmHg 57%
    12:00 +26°C° 0 mm 5 mps 712 mmHg 58%
    13:00 +26°C° 0 mm 5 mps 712 mmHg 59%
    14:00 +25°C° 0.1 mm 5 mps 712 mmHg 61%
    15:00 +25°C° 0.1 mm 5 mps 712 mmHg 63%
    16:00 +23°C° 0.1 mm 5 mps 712 mmHg 65%
    17:00 +22°C° 0.2 mm 5 mps 712 mmHg 68%
    18:00 +22°C° 0.2 mm 5 mps 713 mmHg 70%
    19:00 +21°C° 0.2 mm 4 mps 713 mmHg 73%
    20:00 +20°C° 0.1 mm 4 mps 713 mmHg 72%
    21:00 +20°C° 0.1 mm 4 mps 714 mmHg 72%
    22:00 +20°C° 0.1 mm 4 mps 714 mmHg 71%
    23:00 +19°C° 0 mm 3 mps 714 mmHg 70%

    26 September, Wednesday

    Time Temperature Precipitation Wind Pressure Humidity
    00:00 +19°C° 0 mm 3 mps 714 mmHg 70%
    01:00 +19°C° 0 mm 3 mps 714 mmHg 69%
    02:00 +18°C° 0 mm 3 mps 714 mmHg 68%
    03:00 +18°C° 0 mm 3 mps 714 mmHg 67%
    04:00 +17°C° 0 mm 3 mps 715 mmHg 66%
    05:00 +17°C° 0 mm 3 mps 715 mmHg 64%
    06:00 +17°C° 0 mm 4 mps 715 mmHg 61%
    07:00 +17°C° 0 mm 4 mps 715 mmHg 59%
    08:00 +18°C° 0 mm 4 mps 716 mmHg 52%
    09:00 +19°C° 0 mm 5 mps 716 mmHg 46%
    10:00 +20°C° 0 mm 5 mps 717 mmHg 39%
    11:00 +21°C° 0 mm 5 mps 717 mmHg 37%
    12:00 +21°C° 0 mm 6 mps 717 mmHg 35%
    13:00 +22°C° 0 mm 6 mps 717 mmHg 33%
    14:00 +21°C° 0 mm 6 mps 717 mmHg 34%
    15:00 +21°C° 0 mm 6 mps 716 mmHg 36%
    16:00 +21°C° 0 mm 6 mps 716 mmHg 37%
    17:00 +20°C° 0 mm 6 mps 717 mmHg 39%
    18:00 +17°C° 0 mm 5 mps 717 mmHg 42%
    19:00 +16°C° 0 mm 5 mps 717 mmHg 44%
    20:00 +16°C° 0 mm 5 mps 717 mmHg 45%
    21:00 +17°C° 0 mm 4 mps 718 mmHg 46%
    22:00 +15°C° 0 mm 4 mps 718 mmHg 47%
    23:00 +15°C° 0 mm 4 mps 718 mmHg 48%
    Show more